Location: Dumpton Point
(51.3500°N, 1.4433°E)
Time: 04:59:53
(UTC+00:00)

Altair - Pass Details

Date: 08 October 2022
Orbit: 1501 x 1682 km, 47.2° (Epoch: 04 December)

Event Time Altitude Azimuth Distance (km) Brightness Sun altitude
Rises 08:36:51 0° 283° (WNW) 4,854 9.6 20.4°
Reaches altitude 10° 08:40:03 10° 278° (W) 3,888 9.2 20.8°
Maximum altitude 08:49:34 52° 207° (SSW) 2,015 8.6 21.9°
Drops below altitude 10° 08:59:13 10° 135° (SE) 3,940 11.8 23.0°
Sets 09:02:29 0° 131° (SE) 4,924 11.6 23.3°
